Regional Weather Roundup
Issued by NWS

Home | Current Version | Previous Version | Text Only | Print | Product List | Glossary On
Versions: 1 2 3 4 5 6 7 8 9 10 11 12 13 14 15 16 17 18 19 20 21 22 23 24 25 26 27 28 29 30 31 32 33 34 35 36 37 38 39 40 41 42 43 44 45 46 47 48 49 50
565
ASUS43 KMPX 301910
RWRMN
WEATHER ROUNDUP FOR MINNESOTA
NATIONAL WEATHER SERVICE TWIN CITIES/CHANHASSEN MN
200 PM CDT THU MAR 30 2017


NOTE: "FAIR" INDICATES FEW OR NO CLOUDS BELOW 12,000 FEET WITH NO
SIGNIFICANT WEATHER AND/OR OBSTRUCTIONS TO VISIBILITY. N/A MEANS
CURRENT SKY AND/OR WEATHER CONDITIONS ARE NOT AVAILABLE.

MNZ060>063-068>070-302000-
   Twin Cities Metro

CITY           SKY/WX    TMP DP  RH WIND       PRES   REMARKS
TWIN CITIES    CLOUDY    45  34  65 E16       29.83S
ST PAUL        CLOUDY    45  36  70 E14       29.85S
CRYSTAL        CLOUDY    48  33  56 E13       29.83S
BLAINE         CLOUDY    48  36  61 E14G21    29.84S
LAKEVILLE      CLOUDY    41  37  87 E17       29.82S
EDEN PRAIRIE   CLOUDY    46  35  65 E10       29.82S
SOUTH ST PAUL  CLOUDY    45  35  67 E12       29.83S
LAKE ELMO      CLOUDY    45  36  70 E12G18    29.85R
$$
MNZ001>005-007-008-013>017-022>024-027-028-302000-
   Northwest Minnesota

CITY           SKY/WX    TMP DP  RH WIND       PRES   REMARKS
BEMIDJI        SUNNY     51  33  49 E7        29.90F
HALLOCK        PTSUNNY   48  45  87 S12       29.90S
ROSEAU         MOSUNNY   52  39  62 S12       29.91S
WARROAD        SUNNY     45  37  76 NE6       29.92S
THIEF RVR FALL   N/A     47  39  74 VRB5      29.92F
CROOKSTON      PTSUNNY   46  41  81 SW7       29.92F
FOSSTON        SUNNY     54  37  54 E8        29.89F
DETROIT LAKES  SUNNY     52  32  46 SE8       29.88F
MOORHEAD       SUNNY     50  37  62 CALM      29.89F
PARK RAPIDS    SUNNY     52  29  41 MISG      29.87F
MAHNOMEN       FAIR      52  35  52 E7        29.88F
$$
MNZ006-009>011-018-025>026-302000-
   North Central Minnesota

CITY           SKY/WX    TMP DP  RH WIND       PRES   REMARKS
BAUDETTE       SUNNY     55  34  45 S9        29.90F
FLAG ISLAND    MOSUNNY   41  34  75 SE3       29.92F
INTL FALLS     SUNNY     51  32  48 SE7       29.92F
WASKISH        PTSUNNY   55  36  47 SE5       29.90F
BIG FORK       SUNNY     54  32  43 E5        29.91F
LONGVILLE      SUNNY     50  30  46 E6        29.89F
GRAND RAPIDS   SUNNY     49  28  44 E9        29.91F
CRANE LAKE     SUNNY     52  28  40 CALM      29.95F
ORR            SUNNY     54  25  32 CALM      29.90F
COOK           SUNNY     52  30  43 NE5       29.92F
WALKER         FAIR      46  33  58 E6        29.90F
$$
MNZ012-019>021-037-302000-
   Northeast Minnesota

CITY           SKY/WX    TMP DP  RH WIND       PRES   REMARKS
DULUTH         SUNNY     46  28  49 E14       29.91F
ELY            SUNNY     48  23  37 NE7       29.93S
HIBBING        SUNNY     49  29  46 VRB6      29.90F
EVELETH        SUNNY     52  20  28 SE3       29.92F
DULUTH HARBOR  SUNNY     37  34  87 NE20G26   29.95F
TWO HARBORS    SUNNY     48  32  53 NE9       29.92F
GRAND MARAIS     N/A     38  30  73 E13G20    30.01F
G MARAIS ARPRT SUNNY     39  25  56 E9        29.97F
$$
MNZ029>031-032-039>041-046>048-054>057-064-302000-
   West Central Minnesota

CITY           SKY/WX    TMP DP  RH WIND       PRES   REMARKS
FERGUS FALLS   SUNNY     52  32  46 SE6       29.89F
WHEATON        CLOUDY    48  34  57 E8        29.89F
MORRIS         CLOUDY    48  36  61 E8        29.86S
ALEXANDRIA     CLOUDY    47  33  58 E12       29.86F
ELBOW LAKE     PTSUNNY   49  34  56 SE10      29.87F HAZE
WADENA         SUNNY     52  28  40 E10G17    29.86F
GLENWOOD       PTSUNNY   48  36  61 E10       29.85F
APPLETON       CLOUDY    48  37  66 CALM      29.85F
BENSON         CLOUDY    52  32  46 SE9       29.86F
ORTONVILLE     CLOUDY    45  36  70 E3        29.86F
MADISON        CLOUDY    48  39  71 E6        29.85F
WILLMAR        PTSUNNY   48  37  66 E9        29.84F
$$
MNZ033>034-036-042>043-049>051-058-059-302000-
   Central Minnesota

CITY           SKY/WX    TMP DP  RH WIND       PRES   REMARKS
ST CLOUD       PTSUNNY   49  36  61 NE10      29.84F
SAUK CENTRE    CLOUDY    47  34  62 NE16      29.85F
PAYNESVILLE    CLOUDY    48  34  58 NE9       29.84F
AITKIN         SUNNY     52  28  40 E13G18    29.86F
PINE RIVER     SUNNY     48  32  53 NE10      29.91F
BRAINERD       SUNNY     49  31  49 E7        29.87F
STAPLES        SUNNY     50  28  43 E8        29.87F
LONG PRAIRIE   CLOUDY    45  32  61 N10       29.87S
LITTLE FALLS   CLOUDY    46  32  57 NE5       29.86F
LITCHFIELD     CLOUDY    48  37  66 NE8       29.83F
BUFFALO        CLOUDY    47  34  62 NE9G17    29.84F
MAPLE LAKE     CLOUDY    49  37  62 E14       29.84F
HUTCHINSON     CLOUDY    47  39  72 NE15      29.83F
$$
MNZ037-044-045-052-053-302000-
   East Central Minnesota

CITY           SKY/WX    TMP DP  RH WIND       PRES   REMARKS
PRINCETON      CLOUDY    48  34  57 N13       29.86S
MORA           CLOUDY    48  34  57 E7        29.87F
CAMBRIDGE      CLOUDY    50  36  57 NE9       29.84S
RUSH CITY      CLOUDY    47  33  58 NE9       29.86F
MOOSE LAKE     MOSUNNY   48  32  53 NE13      29.87F
CLOQUET        SUNNY     45  27  49 E13G18    29.90F
MCGREGOR       SUNNY     52  30  43 NE13      29.88F
$$
MNZ071>073-080-081-089-090-097-098-302000-
   Southwest Minnesota

CITY           SKY/WX    TMP DP  RH WIND       PRES   REMARKS
MONTEVIDEO     CLOUDY    48  37  66 E6        29.84F
GRANITE FALLS  CLOUDY    47  38  71 NE10      29.84F
CANBY          CLOUDY    46  38  74 CALM      29.85F
MARSHALL       CLOUDY    43  38  82 NE12      29.82F
REDWOOD FALLS  CLOUDY    44  36  73 NE9       29.82S
OLIVIA         PTSUNNY   46  37  71 NE10G17   29.82F
PIPESTONE      CLOUDY    39  36  87 NE10      29.79F
WINDOM         CLOUDY    39  37  93 NE14      29.78F
WORTHINGTON    CLOUDY    38  37  97 NE17      29.78F
JACKSON          N/A     37  37 100 NE14      29.77S
TRACY          CLOUDY    42  39  90 NE14      29.81F
SLAYTON        CLOUDY    38  37  96 NE10      29.80F
$$
MNZ065>067-074>077-082>085-091>093-302000-
   South Central Minnesota

CITY           SKY/WX    TMP DP  RH WIND       PRES   REMARKS
MANKATO        CLOUDY    40  36  86 NE15      29.81R
NEW ULM        CLOUDY    43  36  75 E8        29.81S
ST JAMES       CLOUDY    39  37  93 NE12      29.80F
FAIRMONT       CLOUDY    40  37  89 NE16      29.78R
GLENCOE        CLOUDY    46  39  78 NE9G17    29.82S
FARIBAULT      CLOUDY    39  37  93 NE13G22   29.82R
OWATONNA       CLOUDY    39  36  87 NE14G23   29.79F
WASECA         CLOUDY    39  36  87 NE12G21   29.80S
ALBERT LEA     CLOUDY    37  37 100 NE15G21   29.77R
$$
MNZ078>079-086>088-094>096-302000-
   Southeast Minnesota

CITY           SKY/WX    TMP DP  RH WIND       PRES   REMARKS
ROCHESTER      LGT RAIN  38  36  92 E18G28    29.77F
RED WING       CLOUDY    43  36  75 E13G20    29.82S
STANTON        CLOUDY    42  36  81 E15G21    29.81S
DODGE CENTER   CLOUDY    37  36  93 NE16G22   29.78F
WINONA         CLOUDY    39  36  87 E9        29.82S
AUSTIN         CLOUDY    37  36  93 E17       29.77R
PRESTON        CLOUDY    37  34  88 E12       29.78S
$$
ABBREVIATIONS USED IN REMARKS
   TC - TEMPERATURES IN CELSIUS
  WCI - WIND CHILL INDEX
   HX - HEAT INDEX
  VSB - VISIBILITY
$$




USA.gov is the U.S. government's official web portal to all federal, state and local government web resources and services.